COSMOS 397 DEB, 5091

Orbit data source: Space-Track

COSMOS 397 DEB, 5091 is space debris in LEO originally from a launch on Thu, 25 Feb 1971 UTC launched from the Tyuratam Missile And Space Complex (TTMTR). Debris objects in space refer to the collection of defunct objects orbiting the Earth. Examples of debris include non-operational satellites, rocket bodies, and fragments generated from explosions, collisions, or faulty payload assembly.

Loading next visibility...
Identifier
5091, 1971-015S
Orbit
LEO
Country
Flag of CISCIS
Related business
Manufacturer
Unknown
Mission
Spacecraft
Bus & Motor
Unknown
Mass
Unknown
Launch date (UTC)
1971-02-25 (55 years ago)
Launch vehicle
Unknown
Launch site
Tyuratam Missile And Space Complex (TTMTR)
Object type
Payload
Rocket body
Debris
Shape & HBR
Unknown shape, 0.3 m
Radar Cross Section
Medium (>0.1 m² and <1 m²)

Expand to show TLE details & history
Last TLE update: 14 hours ago

TLE from 14 hours ago
0 COSMOS 397 DEB
1 05091U 71015S   25349.94776687  .00002431  00000-0  55334-3 0  9999
2 05091  65.7062 298.6229 0461092 107.0169 258.1958 14.08212061677785
Epoch: 2025-12-15T22:44Z
TLE epoch observation values (Epoch: 2025-12-15T22:44:47.057Z)
Latitude
-0.00004°
Longitude
-127.41221°
Altitude
950.379 km
Speed
7.335 km/s
True Right ascension
19h 54m 29s
True Declination
0° 00' 00"
Sunlit
Object was in daylight at epoch
Visualization orbit readout
Latitude
Unknown
Longitude
Unknown
Altitude
Unknown
Speed
Unknown
Apparent Right ascension
Unknown
Apparent Declination
Unknown
Sunlit
N/A
Visualization observer readout
Local Sidereal Time
11:30:55
Azimuth
Unknown
Elevation
Unknown
Doppler factor
Unknown
Orbital elements
Apogee altitude
1,197.929 km
Perigee altitude
530.071 km
Semi-major axis
7,242.137 km
Eccentricity
0.04611
Inclination
65.7062°
RAAN
298.6229°
Arg. of periapsis
107.0169°
True anomaly
253.09086°
Mean anomaly
258.1958°
Eccentric anomaly
255.63652°
Mean motion
3.52162 °/min
Orbital period
102.23 mins
BSTAR
0.00055334
Loading maneuver chart data...
Computing Atmospheric mass density...
Loading historical data...
Loading historical data...
Loading historical data...
Loading historical data...
Loading historical data...
Loading historical data...
Loading historical data...

Documentation

Showing up to 5 results
|